2022/07/05 00:04 UPDATE
�s�[�N��������(��kW),���ԑ�,�����͏��X�V��,�����͏��X�V����,�s�[�N���\����(%),�s�[�N���g�p��(%)
990,10:00�`11:00,07��04��,22:41,11,90

�\�z�ő�d��(��kW),���ԑ�,�\�z�ő�d�͏��X�V��,�\�z�ő�d�͏��X�V����
894,10:00�`11:00,07��04��,22:41

�g�p���s�[�N��������(��kW),���ԑ�,�����͏��X�V��,�����͏��X�V����,�g�p���s�[�N���\����(%),�g�p���s�[�N���g�p��(%)
616,00:00�`01:00,07��04��,22:41,8,92

�g�p���s�[�N���\�z�d��(��kW),���ԑ�,�\�z�d�͏��X�V��,�\�z�d�͏��X�V����
569,00:00�`01:00,07��04��,22:41

DATE,TIME,��������(��kW),�\���l(��kW),�g�p��(%),������(��kW)
2022/7/4,0:00,583,569,94,616
2022/7/4,1:00,549,557,90,609
2022/7/4,2:00,555,560,89,619
2022/7/4,3:00,582,580,89,649
2022/7/4,4:00,602,597,90,667
2022/7/4,5:00,618,598,92,670
2022/7/4,6:00,628,613,92,678
2022/7/4,7:00,671,681,90,744
2022/7/4,8:00,781,786,91,857
2022/7/4,9:00,845,868,87,971
2022/7/4,10:00,839,894,84,990
2022/7/4,11:00,839,859,85,981
2022/7/4,12:00,809,830,80,1008
2022/7/4,13:00,833,871,81,1020
2022/7/4,14:00,863,865,86,1002
2022/7/4,15:00,850,831,87,975
2022/7/4,16:00,825,845,84,980
2022/7/4,17:00,790,816,82,952
2022/7/4,18:00,780,777,84,924
2022/7/4,19:00,758,742,83,903
2022/7/4,20:00,730,728,82,887
2022/7/4,21:00,703,685,84,828
2022/7/4,22:00,674,666,82,821
2022/7/4,23:00,653,645,81,805

�ő�g�p��(%),���ԑ�
94,00:00�`01:00

�����̃s�[�N��������(��kW),���ԑ�,�����͏��X�V��,�����͏��X�V����,�s�[�N���\����(%),�s�[�N���g�p��(%)
1042,14:00�`15:00,07��04��,23:41,13,88

�����̗\�z�ő�d��(��kW),���ԑ�,�\�z�ő�d�͏��X�V��,�\�z�ő�d�͏��X�V����
920,14:00�`15:00,07��04��,23:41

�����̎g�p���s�[�N��������(��kW),���ԑ�,�����͏��X�V��,�����͏��X�V����,�g�p���s�[�N���\����(%),�g�p���s�[�N���g�p��(%)
701,00:00�`01:00,07��04��,23:41,12,89

�����̎g�p���s�[�N���\�z�d��(��kW),���ԑ�,�\�z�d�͏��X�V��,�\�z�d�͏��X�V����
625,00:00�`01:00,07��04��,23:41

DATE,TIME,��������(�T���Ԋu�l)(��kW),���z�����d����(�T���Ԋu�l)(��kW)
2022/7/4,0:00,603,0
2022/7/4,0:05,603,0
2022/7/4,0:10,600,0
2022/7/4,0:15,581,0
2022/7/4,0:20,579,0
2022/7/4,0:25,583,0
2022/7/4,0:30,593,0
2022/7/4,0:35,589,0
2022/7/4,0:40,581,0
2022/7/4,0:45,569,0
2022/7/4,0:50,565,0
2022/7/4,0:55,557,0
2022/7/4,1:00,557,0
2022/7/4,1:05,556,0
2022/7/4,1:10,561,0
2022/7/4,1:15,555,0
2022/7/4,1:20,551,0
2022/7/4,1:25,550,0
2022/7/4,1:30,551,0
2022/7/4,1:35,546,0
2022/7/4,1:40,541,0
2022/7/4,1:45,534,0
2022/7/4,1:50,539,0
2022/7/4,1:55,548,0
2022/7/4,2:00,547,0
2022/7/4,2:05,550,0
2022/7/4,2:10,553,0
2022/7/4,2:15,547,0
2022/7/4,2:20,545,0
2022/7/4,2:25,544,0
2022/7/4,2:30,552,0
2022/7/4,2:35,561,0
2022/7/4,2:40,565,0
2022/7/4,2:45,561,0
2022/7/4,2:50,565,0
2022/7/4,2:55,572,0
2022/7/4,3:00,581,0
2022/7/4,3:05,582,0
2022/7/4,3:10,575,0
2022/7/4,3:15,575,0
2022/7/4,3:20,570,0
2022/7/4,3:25,561,0
2022/7/4,3:30,574,0
2022/7/4,3:35,581,0
2022/7/4,3:40,588,0
2022/7/4,3:45,597,0
2022/7/4,3:50,599,0
2022/7/4,3:55,598,0
2022/7/4,4:00,605,0
2022/7/4,4:05,609,0
2022/7/4,4:10,600,0
2022/7/4,4:15,600,0
2022/7/4,4:20,584,0
2022/7/4,4:25,579,0
2022/7/4,4:30,586,0
2022/7/4,4:35,596,0
2022/7/4,4:40,612,0
2022/7/4,4:45,616,0
2022/7/4,4:50,620,0
2022/7/4,4:55,611,0
2022/7/4,5:00,618,0
2022/7/4,5:05,625,0
2022/7/4,5:10,627,0
2022/7/4,5:15,620,2
2022/7/4,5:20,613,4
2022/7/4,5:25,609,6
2022/7/4,5:30,610,9
2022/7/4,5:35,617,10
2022/7/4,5:40,616,12
2022/7/4,5:45,622,13
2022/7/4,5:50,609,15
2022/7/4,5:55,625,17
2022/7/4,6:00,629,19
2022/7/4,6:05,632,20
2022/7/4,6:10,627,23
2022/7/4,6:15,612,25
2022/7/4,6:20,609,28
2022/7/4,6:25,615,30
2022/7/4,6:30,620,33
2022/7/4,6:35,633,36
2022/7/4,6:40,635,39
2022/7/4,6:45,641,41
2022/7/4,6:50,639,44
2022/7/4,6:55,641,47
2022/7/4,7:00,649,49
2022/7/4,7:05,658,51
2022/7/4,7:10,662,53
2022/7/4,7:15,665,55
2022/7/4,7:20,666,57
2022/7/4,7:25,664,60
2022/7/4,7:30,669,63
2022/7/4,7:35,671,66
2022/7/4,7:40,673,69
2022/7/4,7:45,686,71
2022/7/4,7:50,689,74
2022/7/4,7:55,697,77
2022/7/4,8:00,718,80
2022/7/4,8:05,733,83
2022/7/4,8:10,746,88
2022/7/4,8:15,752,93
2022/7/4,8:20,766,96
2022/7/4,8:25,780,100
2022/7/4,8:30,791,104
2022/7/4,8:35,801,106
2022/7/4,8:40,814,109
2022/7/4,8:45,818,112
2022/7/4,8:50,823,114
2022/7/4,8:55,825,115
2022/7/4,9:00,832,119
2022/7/4,9:05,846,122
2022/7/4,9:10,848,124
2022/7/4,9:15,852,129
2022/7/4,9:20,845,132
2022/7/4,9:25,849,134
2022/7/4,9:30,846,136
2022/7/4,9:35,849,138
2022/7/4,9:40,852,137
2022/7/4,9:45,840,139
2022/7/4,9:50,842,139
2022/7/4,9:55,841,139
2022/7/4,10:00,833,140
2022/7/4,10:05,835,142
2022/7/4,10:10,835,146
2022/7/4,10:15,832,150
2022/7/4,10:20,836,154
2022/7/4,10:25,835,159
2022/7/4,10:30,835,166
2022/7/4,10:35,841,173
2022/7/4,10:40,845,177
2022/7/4,10:45,844,181
2022/7/4,10:50,848,183
2022/7/4,10:55,849,182
2022/7/4,11:00,848,182
2022/7/4,11:05,846,185
2022/7/4,11:10,843,187
2022/7/4,11:15,833,189
2022/7/4,11:20,831,191
2022/7/4,11:25,836,192
2022/7/4,11:30,835,194
2022/7/4,11:35,835,197
2022/7/4,11:40,839,201
2022/7/4,11:45,838,203
2022/7/4,11:50,841,206
2022/7/4,11:55,838,209
2022/7/4,12:00,825,208
2022/7/4,12:05,818,211
2022/7/4,12:10,820,211
2022/7/4,12:15,812,209
2022/7/4,12:20,800,204
2022/7/4,12:25,799,201
2022/7/4,12:30,793,198
2022/7/4,12:35,798,200
2022/7/4,12:40,802,202
2022/7/4,12:45,803,204
2022/7/4,12:50,811,201
2022/7/4,12:55,820,198
2022/7/4,13:00,831,199
2022/7/4,13:05,830,196
2022/7/4,13:10,830,195
2022/7/4,13:15,830,197
2022/7/4,13:20,839,196
2022/7/4,13:25,845,191
2022/7/4,13:30,842,189
2022/7/4,13:35,842,187
2022/7/4,13:40,837,181
2022/7/4,13:45,825,176
2022/7/4,13:50,818,186
2022/7/4,13:55,830,198
2022/7/4,14:00,844,201
2022/7/4,14:05,855,204
2022/7/4,14:10,864,207
2022/7/4,14:15,867,206
2022/7/4,14:20,862,201
2022/7/4,14:25,870,197
2022/7/4,14:30,869,190
2022/7/4,14:35,869,185
2022/7/4,14:40,867,181
2022/7/4,14:45,863,177
2022/7/4,14:50,861,174
2022/7/4,14:55,860,168
2022/7/4,15:00,857,164
2022/7/4,15:05,854,158
2022/7/4,15:10,854,152
2022/7/4,15:15,856,149
2022/7/4,15:20,851,144
2022/7/4,15:25,855,142
2022/7/4,15:30,852,141
2022/7/4,15:35,849,135
2022/7/4,15:40,846,131
2022/7/4,15:45,841,127
2022/7/4,15:50,844,122
2022/7/4,15:55,843,119
2022/7/4,16:00,844,113
2022/7/4,16:05,843,107
2022/7/4,16:10,833,103
2022/7/4,16:15,829,97
2022/7/4,16:20,825,93
2022/7/4,16:25,830,91
2022/7/4,16:30,822,86
2022/7/4,16:35,818,83
2022/7/4,16:40,818,80
2022/7/4,16:45,821,76
2022/7/4,16:50,818,69
2022/7/4,16:55,802,65
2022/7/4,17:00,797,63
2022/7/4,17:05,796,61
2022/7/4,17:10,793,60
2022/7/4,17:15,790,57
2022/7/4,17:20,790,54
2022/7/4,17:25,794,51
2022/7/4,17:30,792,48
2022/7/4,17:35,788,43
2022/7/4,17:40,785,40
2022/7/4,17:45,782,37
2022/7/4,17:50,785,33
2022/7/4,17:55,786,31
2022/7/4,18:00,781,29
2022/7/4,18:05,779,26
2022/7/4,18:10,779,23
2022/7/4,18:15,780,21
2022/7/4,18:20,777,18
2022/7/4,18:25,774,15
2022/7/4,18:30,780,14
2022/7/4,18:35,786,12
2022/7/4,18:40,786,10
2022/7/4,18:45,784,9
2022/7/4,18:50,777,7
2022/7/4,18:55,781,5
2022/7/4,19:00,776,3
2022/7/4,19:05,774,2
2022/7/4,19:10,766,1
2022/7/4,19:15,754,0
2022/7/4,19:20,753,0
2022/7/4,19:25,761,0
2022/7/4,19:30,763,0
2022/7/4,19:35,757,0
2022/7/4,19:40,756,0
2022/7/4,19:45,750,0
2022/7/4,19:50,744,0
2022/7/4,19:55,742,0
2022/7/4,20:00,737,0
2022/7/4,20:05,734,0
2022/7/4,20:10,728,0
2022/7/4,20:15,727,0
2022/7/4,20:20,721,0
2022/7/4,20:25,733,0
2022/7/4,20:30,734,0
2022/7/4,20:35,735,0
2022/7/4,20:40,738,0
2022/7/4,20:45,729,0
2022/7/4,20:50,723,0
2022/7/4,20:55,719,0
2022/7/4,21:00,712,0
2022/7/4,21:05,710,0
2022/7/4,21:10,706,0
2022/7/4,21:15,708,0
2022/7/4,21:20,708,0
2022/7/4,21:25,710,0
2022/7/4,21:30,710,0
2022/7/4,21:35,705,0
2022/7/4,21:40,699,0
2022/7/4,21:45,693,0
2022/7/4,21:50,698,0
2022/7/4,21:55,684,0
2022/7/4,22:00,689,0
2022/7/4,22:05,689,0
2022/7/4,22:10,682,0
2022/7/4,22:15,680,0
2022/7/4,22:20,686,0
2022/7/4,22:25,685,0
2022/7/4,22:30,676,0
2022/7/4,22:35,672,0
2022/7/4,22:40,654,0
2022/7/4,22:45,665,0
2022/7/4,22:50,655,0
2022/7/4,22:55,655,0
2022/7/4,23:00,670,0
2022/7/4,23:05,676,0
2022/7/4,23:10,670,0
2022/7/4,23:15,664,0
2022/7/4,23:20,665,0
2022/7/4,23:25,662,0
2022/7/4,23:30,656,0
2022/7/4,23:35,650,0
2022/7/4,23:40,641,0
2022/7/4,23:45,631,0
2022/7/4,23:50,625,0
2022/7/4,23:55,629,0
